EW2811 Weather Reports


Display with metric or nautical units.
time (UTC)temp
F
wind
direction
speed
MPH
gust
MPH
rain 1hr
in
rain 24hr
in
rain mn
in
humidity
%
barometer
mb
20190917090609 70 202 0.0 0.0 0.00 0.00 0.00 88 1015.8
20190917085608 70 202 0.0 0.0 0.00 0.00 0.00 88 1015.9
20190917084609 70 202 0.0 0.0 0.00 0.00 0.00 88 1016.0
20190917083609 70 202 0.0 0.0 0.00 0.00 0.00 88 1015.8
20190917082609 70 202 0.0 0.0 0.00 0.00 0.00 88 1015.9
20190917081607 70 203 0.0 0.0 0.00 0.00 0.00 87 1015.8
20190917080608 71 203 0.0 0.0 0.00 0.00 0.00 87 1015.7
20190917075607 71 203 0.0 0.0 0.00 0.00 0.00 87 1015.7
20190917074607 71 203 0.0 0.0 0.00 0.00 0.00 87 1015.5
20190917073607 71 203 0.0 0.0 0.00 0.00 0.00 87 1015.7
20190917072605 71 203 0.0 0.0 0.00 0.00 0.00 87 1015.5
20190917071605 71 203 0.0 0.0 0.00 0.00 0.00 87 1015.8
20190917070605 71 203 0.0 0.0 0.00 0.00 0.00 87 1015.8
20190917065605 71 203 0.0 0.0 0.00 0.00 0.00 87 1015.7
20190917064605 71 203 0.0 0.0 0.00 0.00 0.00 87 1015.7
20190917063604 71 204 0.0 0.0 0.00 0.00 0.00 87 1015.7
20190917062606 71 203 0.0 0.0 0.00 0.00 0.00 86 1015.7
20190917061605 72 203 0.0 0.0 0.00 0.00 0.00 86 1015.5
20190917060605 72 203 0.0 0.0 0.00 0.00 0.00 86 1015.7
20190917055604 72 204 0.0 0.0 0.00 0.00 0.00 85 1015.5
20190917054603 72 204 0.0 0.0 0.00 0.00 0.00 86 1015.5
20190917053602 72 204 0.0 0.0 0.00 0.00 0.00 86 1015.7
20190917052602 72 204 0.0 0.0 0.00 0.00 0.00 86 1015.7
20190917051602 72 204 0.0 0.0 0.00 0.00 0.00 85 1015.5
20190917050600 72 204 0.0 0.0 0.00 0.00 0.00 85 1015.5
20190917045559 72 204 0.0 0.0 0.00 0.00 0.00 85 1015.5
20190917044600 72 204 0.0 0.0 0.00 0.00 0.00 84 1015.5
20190917043559 72 204 0.0 0.0 0.00 0.00 0.00 84 1015.7
20190917042600 73 204 0.0 0.0 0.00 0.00 0.00 83 1015.7
20190917041600 73 204 0.0 0.0 0.00 0.00 0.00 83 1015.7
20190917040600 73 204 0.0 0.0 0.00 0.00 0.00 82 1015.7
20190917035559 73 204 0.0 0.0 0.00 0.00 0.00 81 1015.5
20190917034557 73 204 0.0 1.0 0.00 0.00 0.00 81 1015.7
20190917033558 73 204 0.0 0.0 0.00 0.00 0.00 80 1015.5
20190917032558 74 204 0.0 1.0 0.00 0.00 0.00 80 1015.5
20190917031558 73 204 0.0 0.0 0.00 0.00 0.00 80 1015.4
20190917030558 74 173 0.0 0.0 0.00 0.00 0.00 80 1015.4
20190917025557 74 172 0.0 0.0 0.00 0.00 0.00 80 1015.5
20190917024557 74 173 0.0 0.0 0.00 0.00 0.00 80 1015.4
20190917023558 74 172 0.0 0.0 0.00 0.00 0.00 80 1015.3
20190917022557 74 172 0.0 1.0 0.00 0.00 0.00 80 1015.3
20190917021558 74 172 0.0 0.0 0.00 0.00 0.00 80 1015.3
20190917020557 74 172 0.0 0.0 0.00 0.00 0.00 79 1015.2
20190917015558 74 172 0.0 0.0 0.00 0.00 0.00 79 1015.3
20190917014558 74 172 0.0 0.0 0.00 0.00 0.00 79 1015.3
20190917013555 74 172 0.0 0.0 0.00 0.00 0.00 78 1015.5
20190917012555 74 172 0.0 0.0 0.00 0.00 0.00 78 1015.4
20190917011556 74 172 0.0 0.0 0.00 0.00 0.00 78 1015.3
20190917010552 74 47 0.0 0.0 0.00 0.00 0.00 78 1015.4
20190917005552 75 325 0.0 0.0 0.00 0.00 0.00 77 1015.3
20190917004549 75 325 0.0 2.0 0.00 0.00 0.00 77 1015.2
20190917003549 75 248 0.0 0.0 0.00 0.00 0.00 76 1015.2
20190917002549 76 247 0.0 0.0 0.00 0.00 0.00 75 1015.2
20190917001547 76 227 0.0 0.0 0.00 0.00 0.00 74 1015.2
20190917000546 76 227 0.0 0.0 0.00 0.00 0.00 73 1015.1
20190916235545 77 227 0.0 0.0 0.00 0.00 0.00 71 1015.2
20190916234545 77 227 0.0 0.0 0.00 0.00 0.00 70 1015.3
20190916233545 77 227 0.0 0.0 0.00 0.00 0.00 69 1015.3
20190916232543 77 227 0.0 1.0 0.00 0.00 0.00 69 1015.4
20190916231543 78 280 0.0 0.0 0.00 0.00 0.00 69 1015.3
20190916230543 78 280 0.0 0.0 0.00 0.00 0.00 70 1015.3
20190916225542 78 281 0.0 0.0 0.00 0.00 0.00 69 1015.3
20190916224542 78 280 0.0 0.0 0.00 0.00 0.00 68 1015.2
20190916223541 79 280 0.0 1.0 0.00 0.00 0.00 67 1015.2
20190916222541 79 206 0.0 2.0 0.00 0.00 0.00 67 1015.3
20190916221541 80 221 0.0 2.0 0.00 0.00 0.00 67 1015.3
20190916220541 80 222 0.0 2.0 0.00 0.00 0.00 67 1015.2
20190916215539 80 247 0.0 2.0 0.00 0.00 0.00 67 1015.3
20190916214540 80 188 0.0 3.0 0.00 0.00 0.00 67 1015.2
20190916213539 79 213 0.0 0.0 0.00 0.00 0.00 68 1015.3
20190916212539 79 213 0.0 1.0 0.00 0.00 0.00 67 1015.4
20190916211537 80 267 0.0 2.0 0.00 0.00 0.00 69 1015.5
20190916210537 80 206 0.0 0.0 0.00 0.00 0.00 67 1015.7
20190916205536 80 207 0.0 2.0 0.00 0.00 0.00 64 1015.7
20190916204535 81 205 1.0 3.0 0.00 0.00 0.00 60 1015.7
20190916203534 81 262 0.0 1.0 0.00 0.00 0.00 64 1015.7
20190916202534 81 262 0.0 1.0 0.00 0.00 0.00 64 1015.8
20190916201535 82 262 0.0 2.0 0.00 0.00 0.00 62 1015.8
20190916200534 82 204 0.0 3.0 0.00 0.00 0.00 63 1015.8
20190916195535 82 204 0.0 2.0 0.00 0.00 0.00 60 1015.9
20190916194534 82 188 0.0 2.0 0.00 0.00 0.00 63 1015.9
20190916193532 80 209 0.0 3.0 0.00 0.00 0.00 64 1016.0
20190916192532 79 169 0.0 0.0 0.00 0.00 0.00 70 1016.0
20190916191532 79 169 0.0 0.0 0.00 0.00 0.00 70 1016.1
20190916190532 79 169 0.0 0.0 0.00 0.00 0.00 71 1016.2
20190916185533 79 177 0.0 0.0 0.00 0.00 0.00 71 1016.3
20190916184533 79 175 0.0 0.0 0.00 0.00 0.00 69 1016.3
20190916183532 79 175 0.0 0.0 0.00 0.00 0.00 68 1016.4
20190916182533 79 215 0.0 0.0 0.00 0.00 0.00 67 1016.5
20190916181549 79 215 0.0 0.0 0.00 0.00 0.00 69 1016.5
20190916180532 79 215 0.0 0.0 0.00 0.00 0.00 70 1016.7
20190916175532 79 214 0.0 0.0 0.00 0.00 0.00 68 1016.8
20190916174532 79 215 0.0 2.0 0.00 0.00 0.00 65 1016.8
20190916173531 78 209 0.0 2.0 0.00 0.00 0.00 68 1016.9
20190916172528 78 209 0.0 2.0 0.00 0.00 0.00 68 1016.8
20190916171528 77 209 0.0 2.0 0.00 0.00 0.00 67 1016.9
20190916170526 77 209 0.0 2.0 0.00 0.00 0.00 69 1017.0
20190916165524 77 263 0.0 1.0 0.00 0.00 0.00 71 1017.0
20190916164524 77 267 0.0 2.0 0.00 0.00 0.00 70 1017.1
20190916163524 76 209 0.0 2.0 0.00 0.00 0.00 68 1017.1
20190916162524 76 207 0.0 3.0 0.00 0.00 0.00 68 1017.1
20190916161524 76 257 0.0 0.0 0.00 0.00 0.00 74 1017.1
20190916160524 76 321 0.0 2.0 0.00 0.00 0.00 73 1017.1
20190916155525 76 321 0.0 2.0 0.00 0.00 0.00 73 1017.2
20190916154524 75 321 0.0 0.0 0.00 0.00 0.00 77 1017.2
20190916153522 74 321 0.0 0.0 0.00 0.00 0.00 79 1017.2
20190916152522 72 321 0.0 1.0 0.00 0.00 0.00 81 1017.2
20190916151522 71 321 0.0 0.0 0.00 0.00 0.00 84 1017.2
20190916150522 70 321 0.0 0.0 0.00 0.00 0.00 87 1017.3
20190916145520 69 321 0.0 0.0 0.00 0.00 0.00 88 1017.4
20190916144520 68 321 0.0 0.0 0.00 0.00 0.00 89 1017.6
20190916143520 67 321 0.0 0.0 0.00 0.00 0.00 89 1017.5
20190916142520 66 321 0.0 0.0 0.00 0.00 0.00 90 1017.6
20190916141519 66 321 0.0 0.0 0.00 0.00 0.00 90 1017.6
20190916140518 65 321 0.0 0.0 0.00 0.00 0.00 90 1017.6
20190916135518 65 321 0.0 0.0 0.00 0.00 0.00 90 1017.5
20190916134517 64 321 0.0 0.0 0.00 0.00 0.00 90 1017.6
20190916133518 64 321 0.0 0.0 0.00 0.00 0.00 90 1017.6
20190916132518 64 321 0.0 0.0 0.00 0.00 0.00 89 1017.7
20190916131518 63 321 0.0 0.0 0.00 0.00 0.00 89 1017.8
20190916130518 63 321 0.0 0.0 0.00 0.00 0.00 89 1017.8
20190916125518 63 321 0.0 0.0 0.00 0.00 0.00 89 1017.9
20190916124517 62 321 0.0 0.0 0.00 0.00 0.00 89 1017.9
20190916123515 62 321 0.0 0.0 0.00 0.00 0.00 89 1017.8
20190916122515 62 321 0.0 0.0 0.00 0.00 0.00 89 1017.8
20190916121513 62 321 0.0 0.0 0.00 0.00 0.00 89 1017.7
20190916120512 62 321 0.0 0.0 0.00 0.00 0.00 89 1017.5
20190916115514 62 321 0.0 0.0 0.00 0.00 0.00 89 1017.5
20190916114511 62 321 0.0 0.0 0.00 0.00 0.00 89 1017.6
20190916113511 62 321 0.0 0.0 0.00 0.00 0.00 89 1017.5
20190916112511 62 321 0.0 0.0 0.00 0.00 0.00 89 1017.5
20190916111512 62 321 0.0 0.0 0.00 0.00 0.00 89 1017.5
20190916110512 62 321 0.0 0.0 0.00 0.00 0.00 89 1017.4
20190916105511 62 321 0.0 0.0 0.00 0.00 0.00 89 1017.4
20190916104512 62 321 0.0 0.0 0.00 0.00 0.00 89 1017.5
20190916103512 62 321 0.0 0.0 0.00 0.00 0.00 89 1017.4
20190916102509 61 321 0.0 0.0 0.00 0.00 0.00 89 1017.4
20190916101507 61 321 0.0 0.0 0.00 0.00 0.00 89 1017.4
20190916100507 61 321 0.0 0.0 0.00 0.00 0.00 89 1017.3
20190916095508 61 321 0.0 0.0 0.00 0.00 0.00 89 1017.4
20190916094507 61 321 0.0 0.0 0.00 0.00 0.00 89 1017.4
20190916093505 61 321 0.0 0.0 0.00 0.00 0.00 89 1017.4
20190916092505 61 321 0.0 0.0 0.00 0.00 0.00 89 1017.3
20190916091505 61 321 0.0 0.0 0.00 0.00 0.00 89 1017.3